When you browse on this site, cookies collect data to enhance your experience and personalize the content and advertising you see.
Visit our Privacy Policy to learn more. By continuing to use the site, you agree to this use of cookies and data.
  • In Denmark
  • List of Countries
  • For 7 days
  • Water Temperature
  • Satellite Maps
  • Weather Map
  • Weather Widgets
  • user-avatar
    Login

    Hourly Weather Kokurino

    Today, 18 November, Sunday

    Time Temperature Precipitation Wind Pressure Humidity
    00:00 -4°C° 0 mm 3 mps 761 mmHg 29%
    01:00 -4°C° 0 mm 3 mps 761 mmHg 28%
    02:00 -4°C° 0 mm 3 mps 760 mmHg 28%
    03:00 -4°C° 0 mm 3 mps 760 mmHg 28%
    04:00 -4°C° 0 mm 3 mps 759 mmHg 28%
    05:00 -4°C° 0 mm 3 mps 759 mmHg 28%
    06:00 -5°C° 0 mm 3 mps 759 mmHg 28%
    07:00 -4°C° 0 mm 3 mps 758 mmHg 27%
    08:00 -4°C° 0 mm 3 mps 758 mmHg 26%
    09:00 -4°C° 0 mm 3 mps 758 mmHg 25%
    10:00 -1°C° 0 mm 3 mps 758 mmHg 23%
    11:00 0°C° 0 mm 3 mps 758 mmHg 21%
    12:00 +1°C° 0 mm 3 mps 758 mmHg 19%
    13:00 0°C° 0 mm 3 mps 758 mmHg 21%
    14:00 +1°C° 0 mm 2 mps 758 mmHg 22%
    15:00 +1°C° 0 mm 2 mps 758 mmHg 24%
    16:00 -1°C° 0 mm 2 mps 758 mmHg 25%
    17:00 -2°C° 0 mm 2 mps 758 mmHg 26%
    18:00 -2°C° 0 mm 2 mps 758 mmHg 28%
    19:00 -2°C° 0 mm 2 mps 758 mmHg 28%
    20:00 -3°C° 0 mm 2 mps 758 mmHg 28%
    21:00 -3°C° 0 mm 2 mps 758 mmHg 29%
    22:00 -3°C° 0 mm 2 mps 758 mmHg 29%
    23:00 -3°C° 0 mm 2 mps 758 mmHg 30%

    Tomorrow, 19 November, Monday

    Time Temperature Precipitation Wind Pressure Humidity
    00:00 -3°C° 0 mm 2 mps 759 mmHg 30%
    01:00 -1°C° 0 mm 1 mps 759 mmHg 31%
    02:00 -2°C° 0 mm 1 mps 759 mmHg 32%
    03:00 -2°C° 0 mm 1 mps 759 mmHg 32%
    04:00 -2°C° 0 mm 1 mps 759 mmHg 32%
    05:00 -2°C° 0 mm 1 mps 759 mmHg 33%
    06:00 -2°C° 0 mm 1 mps 759 mmHg 33%
    07:00 -2°C° 0 mm 1 mps 760 mmHg 32%
    08:00 -1°C° 0 mm 1 mps 760 mmHg 32%
    09:00 -1°C° 0 mm 1 mps 760 mmHg 31%
    10:00 0°C° 0 mm 1 mps 760 mmHg 29%
    11:00 +1°C° 0 mm 1 mps 760 mmHg 27%
    12:00 +2°C° 0 mm 1 mps 761 mmHg 25%
    13:00 +2°C° 0 mm 1 mps 761 mmHg 27%
    14:00 +2°C° 0 mm 1 mps 761 mmHg 29%
    15:00 0°C° 0 mm 0 mps 761 mmHg 30%
    16:00 +1°C° 0 mm 1 mps 761 mmHg 33%
    17:00 0°C° 0 mm 1 mps 761 mmHg 35%
    18:00 0°C° 0 mm 1 mps 761 mmHg 37%
    19:00 -1°C° 0 mm 1 mps 761 mmHg 41%
    20:00 -1°C° 0 mm 1 mps 761 mmHg 44%
    21:00 -1°C° 0 mm 1 mps 761 mmHg 47%
    22:00 -1°C° 0 mm 1 mps 761 mmHg 52%
    23:00 -1°C° 0 mm 1 mps 760 mmHg 56%

    Day after tomorrow, 20 November, Tuesday

    Time Temperature Precipitation Wind Pressure Humidity
    00:00 -1°C° 0 mm 1 mps 760 mmHg 60%
    01:00 -1°C° 0 mm 1 mps 760 mmHg 66%
    02:00 -1°C° 0 mm 1 mps 760 mmHg 71%
    03:00 -1°C° 0 mm 1 mps 760 mmHg 76%
    04:00 -2°C° 0 mm 1 mps 760 mmHg 80%
    05:00 -2°C° 0 mm 1 mps 760 mmHg 84%
    06:00 -2°C° 0 mm 1 mps 760 mmHg 87%
    07:00 -1°C° 0 mm 1 mps 760 mmHg 88%
    08:00 -3°C° 0 mm 2 mps 760 mmHg 88%
    09:00 -3°C° 0 mm 2 mps 760 mmHg 88%
    10:00 -2°C° 0 mm 2 mps 760 mmHg 84%
    11:00 -1°C° 0 mm 2 mps 759 mmHg 80%
    12:00 +1°C° 0 mm 2 mps 759 mmHg 76%
    13:00 -1°C° 0 mm 2 mps 759 mmHg 76%
    14:00 -1°C° 0 mm 2 mps 759 mmHg 76%
    15:00 -1°C° 0 mm 2 mps 758 mmHg 76%
    16:00 +1°C° 0 mm 1 mps 758 mmHg 78%
    17:00 +1°C° 0 mm 1 mps 758 mmHg 79%
    18:00 0°C° 0 mm 1 mps 758 mmHg 80%
    19:00 0°C° 0 mm 1 mps 758 mmHg 81%
    20:00 0°C° 0 mm 1 mps 758 mmHg 81%
    21:00 0°C° 0 mm 1 mps 758 mmHg 82%
    22:00 0°C° 0 mm 1 mps 758 mmHg 82%
    23:00 -1°C° 0 mm 1 mps 758 mmHg 82%

    21 November, Wednesday

    Time Temperature Precipitation Wind Pressure Humidity
    00:00 -1°C° 0 mm 1 mps 757 mmHg 82%
    01:00 -1°C° 0 mm 1 mps 757 mmHg 82%
    02:00 -1°C° 0 mm 1 mps 757 mmHg 83%
    03:00 -1°C° 0 mm 1 mps 757 mmHg 83%
    04:00 -1°C° 0 mm 1 mps 757 mmHg 82%
    05:00 -3°C° 0 mm 2 mps 756 mmHg 82%
    06:00 -3°C° 0 mm 2 mps 756 mmHg 81%
    07:00 -3°C° 0 mm 2 mps 756 mmHg 79%
    08:00 -3°C° 0 mm 2 mps 756 mmHg 77%
    09:00 -3°C° 0 mm 2 mps 756 mmHg 75%
    10:00 -2°C° 0 mm 3 mps 755 mmHg 72%
    11:00 -2°C° 0 mm 3 mps 755 mmHg 69%
    12:00 -2°C° 0 mm 4 mps 755 mmHg 66%
    13:00 -2°C° 0 mm 4 mps 755 mmHg 66%
    14:00 -2°C° 0 mm 4 mps 754 mmHg 66%
    15:00 -3°C° 0 mm 4 mps 754 mmHg 66%
    16:00 -3°C° 0 mm 4 mps 754 mmHg 69%
    17:00 -4°C° 0 mm 4 mps 754 mmHg 71%
    18:00 -4°C° 0 mm 4 mps 754 mmHg 73%
    19:00 -5°C° 0 mm 4 mps 754 mmHg 74%
    20:00 -5°C° 0 mm 4 mps 754 mmHg 75%
    21:00 -5°C° 0 mm 4 mps 753 mmHg 76%
    22:00 -5°C° 0 mm 3 mps 753 mmHg 78%
    23:00 -5°C° 0 mm 3 mps 753 mmHg 79%

    22 November, Thursday

    Time Temperature Precipitation Wind Pressure Humidity
    00:00 -5°C° 0 mm 3 mps 753 mmHg 80%
    01:00 -5°C° 0 mm 3 mps 753 mmHg 82%
    02:00 -5°C° 0 mm 3 mps 753 mmHg 83%
    03:00 -5°C° 0 mm 3 mps 753 mmHg 84%
    04:00 -6°C° 0 mm 3 mps 753 mmHg 85%
    05:00 -6°C° 0 mm 3 mps 753 mmHg 86%
    06:00 -6°C° 0 mm 3 mps 753 mmHg 87%
    07:00 -6°C° 0 mm 3 mps 753 mmHg 85%
    08:00 -5°C° 0 mm 3 mps 753 mmHg 82%
    09:00 -5°C° 0 mm 3 mps 752 mmHg 80%
    10:00 -4°C° 0 mm 4 mps 752 mmHg 74%
    11:00 -4°C° 0 mm 4 mps 752 mmHg 68%
    12:00 -4°C° 0 mm 5 mps 751 mmHg 62%
    13:00 -4°C° 0 mm 5 mps 751 mmHg 61%
    14:00 -4°C° 0 mm 5 mps 750 mmHg 59%
    15:00 -4°C° 0 mm 6 mps 750 mmHg 57%
    16:00 -4°C° 0 mm 6 mps 749 mmHg 59%
    17:00 -5°C° 0 mm 6 mps 749 mmHg 61%
    18:00 -5°C° 0 mm 6 mps 748 mmHg 63%
    19:00 -6°C° 0 mm 7 mps 748 mmHg 65%
    20:00 -6°C° 0 mm 7 mps 748 mmHg 66%
    21:00 -6°C° 0 mm 7 mps 748 mmHg 68%
    22:00 -6°C° 0 mm 7 mps 748 mmHg 70%
    23:00 -4°C° 0 mm 7 mps 748 mmHg 71%

    23 November, Friday

    Time Temperature Precipitation Wind Pressure Humidity
    00:00 -4°C° 0 mm 7 mps 748 mmHg 73%
    01:00 -6°C° 0 mm 7 mps 748 mmHg 70%
    02:00 -6°C° 0 mm 7 mps 749 mmHg 68%
    03:00 -6°C° 0 mm 7 mps 749 mmHg 66%
    04:00 -7°C° 0 mm 7 mps 750 mmHg 64%
    05:00 -8°C° 0 mm 6 mps 750 mmHg 63%
    06:00 -8°C° 0 mm 6 mps 751 mmHg 62%
    07:00 -8°C° 0 mm 6 mps 752 mmHg 60%
    08:00 -8°C° 0 mm 6 mps 753 mmHg 57%
    09:00 -8°C° 0 mm 6 mps 753 mmHg 55%
    10:00 -8°C° 0 mm 6 mps 754 mmHg 52%
    11:00 -6°C° 0 mm 6 mps 754 mmHg 49%
    12:00 -5°C° 0 mm 6 mps 755 mmHg 45%
    13:00 -5°C° 0 mm 6 mps 755 mmHg 46%
    14:00 -5°C° 0 mm 6 mps 755 mmHg 46%
    15:00 -5°C° 0 mm 5 mps 755 mmHg 46%
    16:00 -5°C° 0 mm 5 mps 755 mmHg 50%
    17:00 -5°C° 0 mm 5 mps 755 mmHg 54%
    18:00 -6°C° 0 mm 5 mps 756 mmHg 58%
    19:00 -6°C° 0 mm 5 mps 756 mmHg 64%
    20:00 -6°C° 0 mm 5 mps 756 mmHg 70%
    21:00 -6°C° 0 mm 5 mps 756 mmHg 76%
    22:00 -6°C° 0 mm 5 mps 756 mmHg 79%
    23:00 -6°C° 0 mm 5 mps 757 mmHg 82%
    Show more